This is the latest recevied weather packets stored in our database for station/object DB0NLS-15. If no packets are shown the sender has not sent any weather packets the latest 10 day(s).
| Time | Temp. | Humidity | Pressure | Rain* | Wind** | Luminosity | Snow |
|---|---|---|---|---|---|---|---|
| 1777543540 | 12.78° C | 36% | 1020.6 hPa | 0 mm | - | - | - |
| 1777542937 | 12.78° C | 37% | 1020.6 hPa | 0 mm | - | - | - |
| 1777542334 | 13.33° C | 36% | 1020.7 hPa | 0 mm | - | - | - |
| 1777541732 | 13.33° C | 36% | 1020.8 hPa | 0 mm | - | - | - |
| 1777541129 | 12.22° C | 37% | 1021 hPa | 0 mm | - | - | - |
| 1777540527 | 12.22° C | 37% | 1021 hPa | 0 mm | - | - | - |
| 1777539924 | 11.67° C | 37% | 1021.1 hPa | 0 mm | - | - | - |
| 1777539321 | 11.67° C | 38% | 1021.1 hPa | 0 mm | - | - | - |
| 1777538718 | 11.67° C | 38% | 1021.1 hPa | 0 mm | - | - | - |
| 1777538116 | 11.11° C | 38% | 1021 hPa | 0 mm | - | - | - |
| 1777537573 | 11.11° C | 37% | 1021 hPa | 0 mm | - | - | - |
| 1777536971 | 11.11° C | 36% | 1021.1 hPa | 0 mm | - | - | - |
| 1777536368 | 11.11° C | 38% | 1021.1 hPa | 0 mm | - | - | - |
| 1777535765 | 10.56° C | 38% | 1021.1 hPa | 0 mm | - | - | - |
| 1777535163 | 10.56° C | 38% | 1021.2 hPa | 0 mm | - | - | - |
| 1777534560 | 10° C | 40% | 1021.3 hPa | 0 mm | - | - | - |
| 1777533958 | 9.44° C | 42% | 1021.3 hPa | 0 mm | - | - | - |
| 1777533355 | 8.89° C | 43% | 1021.3 hPa | 0 mm | - | - | - |
| 1777532753 | 8.33° C | 45% | 1021.4 hPa | 0 mm | - | - | - |
| 1777532150 | 8.33° C | 46% | 1021.4 hPa | 0 mm | - | - | - |
| 1777531547 | 7.78° C | 46% | 1021.5 hPa | 0 mm | - | - | - |
| 1777530945 | 7.22° C | 48% | 1021.3 hPa | 0 mm | - | - | - |
| 1777530342 | 6.67° C | 49% | 1021.4 hPa | 0 mm | - | - | - |
| 1777529739 | 6.67° C | 50% | 1021.2 hPa | 0 mm | - | - | - |
| 1777529137 | 6.67° C | 55% | 1021.1 hPa | 0 mm | - | - | - |
* Rain latest hour (hover to see other rain measurements)
** Current wind speed in m/s (hover to see current wind gust speed)